N3957 KCHA-KTYS

Flight info

Callsign N3957
Flight time N/A
Altitude 5500
Route GROSS
Aircraft C172/L-SFG/C

Departure

Time 2026-04-24 21:02
Airport Chattanooga Metropolitan Airport (Lovell Field) (KCHA)

Arrival

Time N/A
Airport McGhee Tyson Airport (KTYS)
Time Latitude Longitude Altitude Speed Heading
2026-04-24 20:52 35.03349 -85.19635 686 ft 0 kts 326°
2026-04-24 20:54 35.03350 -85.19636 686 ft 1 kts 326°
2026-04-24 20:55 35.03367 -85.19650 686 ft 5 kts 325°
2026-04-24 20:55 35.03402 -85.19679 686 ft 7 kts 325°
2026-04-24 20:55 35.03430 -85.19716 686 ft 2 kts 301°
2026-04-24 20:55 35.03431 -85.19719 686 ft 1 kts 301°
2026-04-24 20:56 35.03441 -85.19738 686 ft 4 kts 302°
2026-04-24 20:56 35.03470 -85.19767 686 ft 7 kts 327°
2026-04-24 20:56 35.03518 -85.19808 686 ft 9 kts 326°
2026-04-24 20:56 35.03571 -85.19855 686 ft 10 kts 323°
2026-04-24 20:57 35.03629 -85.19906 686 ft 10 kts 325°
2026-04-24 20:57 35.03679 -85.19948 686 ft 8 kts 325°
2026-04-24 20:57 35.03728 -85.19959 686 ft 7 kts 14°
2026-04-24 20:57 35.03775 -85.19944 686 ft 7 kts 22°
2026-04-24 20:58 35.03820 -85.19928 686 ft 7 kts 18°
2026-04-24 20:58 35.03865 -85.19912 686 ft 7 kts 16°
2026-04-24 20:58 35.03909 -85.19897 686 ft 6 kts 15°
2026-04-24 20:58 35.03947 -85.19883 686 ft 5 kts 17°
2026-04-24 20:59 35.03978 -85.19872 686 ft 5 kts 16°
2026-04-24 20:59 35.04010 -85.19866 686 ft 5 kts 345°
2026-04-24 20:59 35.04037 -85.19882 686 ft 4 kts 332°
2026-04-24 20:59 35.04064 -85.19900 686 ft 5 kts 331°
2026-04-24 21:00 35.04098 -85.19922 686 ft 6 kts 331°
2026-04-24 21:00 35.04139 -85.19950 686 ft 7 kts 330°
2026-04-24 21:00 35.04184 -85.20001 686 ft 13 kts 260°
2026-04-24 21:00 35.04107 -85.20077 686 ft 19 kts 197°
2026-04-24 21:01 35.03876 -85.20157 686 ft 56 kts 196°
2026-04-24 21:01 35.03407 -85.20307 734 ft 79 kts 192°
2026-04-24 21:01 35.02851 -85.20512 833 ft 88 kts 197°
2026-04-24 21:01 35.02258 -85.20713 993 ft 87 kts 193°
2026-04-24 21:02 35.01677 -85.20877 1180 ft 84 kts 192°
2026-04-24 21:02 35.01116 -85.20994 1373 ft 81 kts 188°
2026-04-24 21:02 35.00572 -85.20948 1580 ft 80 kts 166°
2026-04-24 21:02 35.00106 -85.20563 1737 ft 87 kts 143°
2026-04-24 21:03 34.99635 -85.20050 1853 ft 91 kts 137°
2026-04-24 21:03 34.99324 -85.19322 1913 ft 106 kts 102°
2026-04-24 21:03 34.99380 -85.18727 2016 ft 108 kts 71°
2026-04-24 21:03 34.99750 -85.17873 2034 ft 119 kts 59°
2026-04-24 21:04 35.00183 -85.16995 2100 ft 119 kts 57°
2026-04-24 21:04 35.00629 -85.16153 2212 ft 117 kts 56°
2026-04-24 21:04 35.01050 -85.15330 2323 ft 115 kts 57°
2026-04-24 21:04 35.01473 -85.14493 2440 ft 114 kts 57°
2026-04-24 21:05 35.01888 -85.13667 2556 ft 114 kts 58°
2026-04-24 21:05 35.02297 -85.12849 2673 ft 113 kts 58°
2026-04-24 21:05 35.02719 -85.12036 2799 ft 113 kts 49°
2026-04-24 21:05 35.03294 -85.11386 2930 ft 112 kts 38°
2026-04-24 21:06 35.03857 -85.10733 3051 ft 112 kts 41°
2026-04-24 21:06 35.04392 -85.10050 3172 ft 112 kts 44°
2026-04-24 21:06 35.04915 -85.09344 3300 ft 112 kts 45°
2026-04-24 21:06 35.05430 -85.08632 3424 ft 112 kts 45°
2026-04-24 21:07 35.05943 -85.07912 3546 ft 112 kts 46°
2026-04-24 21:07 35.06450 -85.07194 3667 ft 112 kts 46°
2026-04-24 21:07 35.06958 -85.06475 3798 ft 111 kts 46°
2026-04-24 21:07 35.07460 -85.05761 3925 ft 111 kts 46°
2026-04-24 21:08 35.07959 -85.05052 4038 ft 110 kts 46°
2026-04-24 21:08 35.08459 -85.04340 4163 ft 109 kts 46°
2026-04-24 21:08 35.08948 -85.03644 4277 ft 109 kts 46°
2026-04-24 21:08 35.09441 -85.02941 4397 ft 109 kts 46°
2026-04-24 21:09 35.09935 -85.02238 4520 ft 108 kts 46°
2026-04-24 21:09 35.10426 -85.01538 4640 ft 108 kts 46°
2026-04-24 21:09 35.10914 -85.00843 4764 ft 108 kts 46°
2026-04-24 21:09 35.11397 -85.00154 4888 ft 107 kts 46°
2026-04-24 21:10 35.11882 -84.99464 5010 ft 106 kts 46°
2026-04-24 21:10 35.12360 -84.98781 5136 ft 106 kts 46°
2026-04-24 21:10 35.12840 -84.98096 5253 ft 106 kts 46°
2026-04-24 21:10 35.13321 -84.97411 5361 ft 107 kts 46°
2026-04-24 21:11 35.13801 -84.96727 5462 ft 107 kts 46°
2026-04-24 21:11 35.14299 -84.96019 5521 ft 112 kts 46°
2026-04-24 21:11 35.14829 -84.95267 5531 ft 118 kts 46°
2026-04-24 21:11 35.15371 -84.94498 5517 ft 123 kts 46°
2026-04-24 21:12 35.15933 -84.93699 5512 ft 125 kts 46°
2026-04-24 21:12 35.16505 -84.92885 5505 ft 126 kts 46°
2026-04-24 21:12 35.17079 -84.92068 5502 ft 127 kts 46°
2026-04-24 21:12 35.17652 -84.91250 5508 ft 127 kts 46°
2026-04-24 21:13 35.18228 -84.90428 5507 ft 127 kts 46°
2026-04-24 21:13 35.18808 -84.89599 5514 ft 128 kts 46°
2026-04-24 21:13 35.19387 -84.88773 5512 ft 128 kts 46°
2026-04-24 21:13 35.19968 -84.87942 5522 ft 128 kts 46°
2026-04-24 21:14 35.20545 -84.87118 5516 ft 129 kts 46°
2026-04-24 21:14 35.21129 -84.86284 5509 ft 129 kts 46°
2026-04-24 21:14 35.21707 -84.85457 5507 ft 128 kts 46°
2026-04-24 21:14 35.22288 -84.84624 5508 ft 128 kts 46°
2026-04-24 21:15 35.22865 -84.83797 5510 ft 127 kts 46°
2026-04-24 21:15 35.23441 -84.82972 5514 ft 127 kts 46°
2026-04-24 21:15 35.24011 -84.82156 5514 ft 127 kts 46°
2026-04-24 21:15 35.24585 -84.81334 5513 ft 128 kts 46°
2026-04-24 21:16 35.25160 -84.80511 5512 ft 127 kts 46°
2026-04-24 21:16 35.25742 -84.79676 5511 ft 127 kts 46°
2026-04-24 21:16 35.26311 -84.78860 5515 ft 128 kts 46°
2026-04-24 21:16 35.26890 -84.78031 5507 ft 128 kts 46°
2026-04-24 21:17 35.27467 -84.77203 5513 ft 127 kts 46°
2026-04-24 21:17 35.28045 -84.76375 5517 ft 128 kts 46°
2026-04-24 21:17 35.28623 -84.75545 5511 ft 128 kts 46°
2026-04-24 21:17 35.29194 -84.74725 5514 ft 128 kts 46°
2026-04-24 21:18 35.29771 -84.73897 5514 ft 128 kts 46°
2026-04-24 21:18 35.30348 -84.73069 5516 ft 128 kts 46°
2026-04-24 21:18 35.30926 -84.72239 5512 ft 128 kts 46°
2026-04-24 21:18 35.31504 -84.71408 5511 ft 128 kts 46°
2026-04-24 21:19 35.32077 -84.70585 5504 ft 128 kts 46°
2026-04-24 21:19 35.32654 -84.69754 5512 ft 128 kts 46°
2026-04-24 21:19 35.33227 -84.68931 5512 ft 128 kts 46°
2026-04-24 21:19 35.33808 -84.68095 5512 ft 128 kts 46°
2026-04-24 21:20 35.34955 -84.66444 5512 ft 128 kts 46°
2026-04-24 21:20 35.35529 -84.65619 5505 ft 127 kts 46°
2026-04-24 21:20 35.36103 -84.64792 5509 ft 127 kts 46°
2026-04-24 21:21 35.36676 -84.63966 5516 ft 127 kts 46°
2026-04-24 21:21 35.37249 -84.63141 5515 ft 127 kts 46°
2026-04-24 21:21 35.37825 -84.62313 5514 ft 127 kts 46°
2026-04-24 21:21 35.38391 -84.61497 5514 ft 127 kts 47°
2026-04-24 21:22 35.38968 -84.60665 5515 ft 128 kts 47°
2026-04-24 21:22 35.39544 -84.59836 5513 ft 128 kts 46°
2026-04-24 21:22 35.40122 -84.59002 5510 ft 128 kts 46°
2026-04-24 21:22 35.40697 -84.58174 5515 ft 128 kts 46°
2026-04-24 21:23 35.41266 -84.57352 5513 ft 128 kts 46°
2026-04-24 21:23 35.41849 -84.56510 5517 ft 128 kts 46°
2026-04-24 21:23 35.42420 -84.55687 5530 ft 129 kts 46°
2026-04-24 21:23 35.43013 -84.54833 5526 ft 133 kts 46°
2026-04-24 21:24 35.43620 -84.53960 5522 ft 135 kts 46°
2026-04-24 21:24 35.44233 -84.53078 5524 ft 136 kts 46°
2026-04-24 21:24 35.44754 -84.52328 5535 ft 140 kts 46°
2026-04-24 21:24 35.45386 -84.51419 5520 ft 142 kts 46°
2026-04-24 21:25 35.46030 -84.50492 5511 ft 142 kts 46°
2026-04-24 21:25 35.46665 -84.49575 5471 ft 138 kts 47°
2026-04-24 21:25 35.47266 -84.48700 5479 ft 130 kts 47°
2026-04-24 21:25 35.47831 -84.47876 5487 ft 125 kts 47°
2026-04-24 21:26 35.48382 -84.47072 5496 ft 123 kts 46°
2026-04-24 21:26 35.48930 -84.46275 5498 ft 122 kts 46°
2026-04-24 21:26 35.49480 -84.45477 5496 ft 121 kts 46°
2026-04-24 21:26 35.50018 -84.44697 5501 ft 121 kts 46°
2026-04-24 21:27 35.50562 -84.43908 5490 ft 121 kts 46°
2026-04-24 21:27 35.51103 -84.43123 5491 ft 120 kts 46°
2026-04-24 21:27 35.51642 -84.42342 5494 ft 120 kts 46°
2026-04-24 21:27 35.52176 -84.41554 5496 ft 120 kts 47°
2026-04-24 21:28 35.52702 -84.40762 5498 ft 120 kts 47°
2026-04-24 21:28 35.53228 -84.39969 5504 ft 120 kts 47°
2026-04-24 21:28 35.53760 -84.39169 5504 ft 121 kts 47°
2026-04-24 21:28 35.54091 -84.38245 5512 ft 118 kts 81°